Starlink 30311

operational
NORAD ID: 57637 Int'l Des: 2023-122 Owner: SPXS Country: US Constellation: starlink
LEOCIRCULAR

About Starlink 30311

Description loading...

Live Position

Loading 3D Globe...

Upcoming Passes

Altitude History

Altitude vs Time

uPlot chart will show altitude changes over time

Two-Line Element Set

1 57637U 23122F 26102.83998374 .00002421 00000-0 97529-4 0 9995
2 57637 43.0032 259.3099 0001776 265.9250 94.1398 15.27565414147432
Epoch: Apr 12, 2026 • Age: 10 hours

Current Status

Altitude 483.2 km
Velocity 7.63 km/s
Sub-Earth Point 21.24°N, 5.61°W
Launch Date Aug 17, 2023
Age 2.6 years
Type internet

Technical Details

Classification Payload
Mass 730.00 kg
Dry Mass 700.00 kg
Total Mass 730.00 kg
Length 0.30 m
Diameter 4.10 m
Span 29.00 m
Shape Box + pan
Manufacturer SPXS
Bus Type Starlink V2M
Phase Status In Orbit
Owner/State SPXS/US

Large Constellations

Loading constellations...